Waarnemingen

Advertentie
Mijn weer
Lamezia Terme, Italië (16362): temperatuur & dauwpunt: 10.12.2017 19:00:00 - 16.12.2017 19:00:00 (CET)Lamezia Terme, Italië (16362): windsnelheid: 10.12.2017 19:00:00 - 16.12.2017 19:00:00 (CET)Lamezia Terme, Italië (16362): windrichting: 10.12.2017 19:00:00 - 16.12.2017 19:00:00 (CET)Lamezia Terme, Italië (16362): luchtdruk: 10.12.2017 19:00:00 - 16.12.2017 19:00:00 (CET)Lamezia Terme, Italië (16362): zicht: 10.12.2017 19:00:00 - 16.12.2017 19:00:00 (CET)Lamezia Terme, Italië (16362): neerslag: 10.12.2017 19:00:00 - 16.12.2017 19:00:00 (CET)
Datum & Tijd tt [°C] td [°C] ff [km/u] ff [kn] dd ppp [hPa] vv [km] rr [mm]
16.12.2017 19:00:00 11,4 7,0 21 11 WNW 1010,9 10 -
16.12.2017 18:00:00 13,0 7,0 21 11 WNW - 10 -
16.12.2017 17:00:00 13,0 8,0 18 10 W - 10 -
16.12.2017 16:00:00 12,7 6,4 9 5 W 1010,1 10 -
16.12.2017 15:00:00 12,0 11,0 4 2 Z - 6 -
16.12.2017 14:00:00 13,0 11,0 4 2 - - 4,0 -
16.12.2017 13:00:00 12,2 10,9 5 3 Z 1008,2 8 -
16.12.2017 12:00:00 14,0 11,0 5 3 - - 7 -
16.12.2017 11:00:00 15,0 12,0 9 5 WZW - 10 -
16.12.2017 10:00:00 15,1 11,9 9 5 W 1009,0 10 -
16.12.2017 09:00:00 15,0 12,0 11 6 WNW - 10 -
16.12.2017 08:00:00 14,0 12,0 13 7 WZW - 8 -
16.12.2017 07:00:00 14,7 12,3 26 14 W 1007,8 10 -
16.12.2017 06:00:00 13,0 8,0 9 5 ZZW - 10 -
16.12.2017 05:00:00 8,0 5,0 4 2 - - 10 -
16.12.2017 04:00:00 14,6 9,2 9 5 ZZW 1007,7 10 -
16.12.2017 03:00:00 13,0 9,0 15 8 ZZW - 10 -
16.12.2017 02:00:00 13,0 9,0 15 8 ZZW - 10 -
16.12.2017 01:00:00 13,1 7,6 0 0 N 1008,1 10 0,0
16.12.2017 00:00:00 6,0 4,0 5 3 O - 10 -
15.12.2017 23:00:00 6,0 4,0 9 5 O - 10 -
15.12.2017 22:00:00 7,1 4,0 5 3 O 1009,5 10 -
15.12.2017 21:00:00 8,0 3,0 8 4 O - 10 -
15.12.2017 20:00:00 8,0 4,0 11 6 ONO - 10 -
15.12.2017 19:00:00 8,3 5,4 13 7 O 1008,5 10 0,0
15.12.2017 18:00:00 10,0 6,0 9 5 ONO - 10 -
15.12.2017 17:00:00 14,0 6,0 5 3 O - 10 -
15.12.2017 16:00:00 17,4 4,2 2 1 N 1009,4 10 -
15.12.2017 15:00:00 17,0 5,0 5 3 - - 10 -
15.12.2017 14:00:00 - - - - - - - -
15.12.2017 13:00:00 17,3 5,2 8 4 W 1011,1 10 0,0
15.12.2017 12:00:00 16,0 8,0 13 7 WZW - 10 -
15.12.2017 11:00:00 16,0 9,0 13 7 ZW - 10 -
15.12.2017 10:00:00 16,5 8,5 5 3 - 1013,3 10 -
15.12.2017 09:00:00 14,0 9,0 0 0 N - 10 -
15.12.2017 08:00:00 11,0 8,0 2 1 - - 10 -
15.12.2017 07:00:00 10,1 7,6 4 2 ZZO 1014,8 10 -
15.12.2017 06:00:00 12,0 9,0 5 3 - - 10 -
15.12.2017 05:00:00 13,0 10,0 8 4 ZZW - 10 -
15.12.2017 04:00:00 13,2 9,7 11 6 ZW 1015,3 10 -
15.12.2017 03:00:00 15,0 10,0 15 8 ZW - 10 -
15.12.2017 02:00:00 15,0 10,0 9 5 - - 10 -
15.12.2017 01:00:00 13,4 9,3 4 2 N 1017,1 10 -
15.12.2017 00:00:00 15,0 9,0 18 10 W - 10 -
14.12.2017 23:00:00 15,0 9,0 16 9 WZW - 10 -
14.12.2017 22:00:00 15,0 8,8 21 11 WZW 1018,0 10 -
14.12.2017 21:00:00 15,0 9,0 21 11 WZW - 10 -
14.12.2017 20:00:00 15,0 9,0 22 12 WZW - 10 -
14.12.2017 19:00:00 13,5 10,5 11 6 ZZW 1018,7 10 -
14.12.2017 18:00:00 13,0 9,0 15 8 WZW - 9 -
14.12.2017 17:00:00 14,0 9,0 28 15 W - 10 -
14.12.2017 16:00:00 12,9 10,2 26 14 W 1018,8 10 -
14.12.2017 15:00:00 15,0 8,0 31 17 W - 10 -
14.12.2017 14:00:00 15,0 7,0 37 20 W - 10 -
14.12.2017 13:00:00 15,3 5,8 39 21 W 1019,4 10 0,0
14.12.2017 12:00:00 15,0 8,0 34 18 W - 10 -
14.12.2017 11:00:00 15,0 8,0 29 16 W - 10 -
14.12.2017 10:00:00 13,9 9,6 28 15 W 1020,9 10 -
14.12.2017 09:00:00 14,0 9,0 22 12 WZW - 10 -
14.12.2017 08:00:00 14,0 7,0 28 15 W - 10 -
14.12.2017 07:00:00 12,7 5,8 18 10 WNW 1020,7 10 -
14.12.2017 06:00:00 13,0 6,0 28 15 WNW - 10 -
14.12.2017 05:00:00 14,0 6,0 37 20 W - 10 -
14.12.2017 04:00:00 13,4 6,0 29 16 WNW 1019,9 10 -
14.12.2017 03:00:00 13,0 7,0 31 17 WNW - 10 -
14.12.2017 02:00:00 13,0 8,0 24 13 WNW - 10 -
14.12.2017 01:00:00 13,4 8,1 24 13 WNW 1020,2 10 -
14.12.2017 00:00:00 14,0 9,0 28 15 W - 10 -
13.12.2017 23:00:00 14,0 11,0 28 15 W - 10 -
13.12.2017 22:00:00 14,0 11,0 28 15 W 1021,1 10 -
13.12.2017 21:00:00 14,0 11,0 26 14 W - 10 -
13.12.2017 20:00:00 14,0 12,0 34 18 W - 10 -
13.12.2017 19:00:00 15,8 11,3 41 22 W 1020,5 10 0,0
13.12.2017 18:00:00 16,0 13,0 29 16 W - 10 -
13.12.2017 17:00:00 16,0 13,0 21 11 WZW - 10 -
13.12.2017 16:00:00 16,0 12,6 16 9 W 1020,3 10 -
13.12.2017 15:00:00 17,0 11,0 24 13 W - 10 -
13.12.2017 14:00:00 17,0 12,0 24 13 WZW - 10 -
13.12.2017 13:00:00 17,3 12,1 24 13 WZW 1020,3 10 0,0
13.12.2017 12:00:00 17,0 10,0 16 9 ZW - 10 -
13.12.2017 11:00:00 17,0 11,0 11 6 WZW - 10 -
13.12.2017 10:00:00 15,8 10,1 8 4 WZW 1022,0 10 -
13.12.2017 09:00:00 10,0 8,0 8 4 OZO - 10 -
13.12.2017 08:00:00 6,0 5,0 8 4 ONO - 10 -
13.12.2017 07:00:00 5,8 4,7 11 6 O 1021,4 10 0,0
13.12.2017 06:00:00 - - - - - - - -
13.12.2017 05:00:00 5,0 4,0 9 5 O - 10 -
13.12.2017 04:00:00 5,6 4,1 11 6 O 1020,3 10 -
13.12.2017 03:00:00 - - - - - - - -
13.12.2017 02:00:00 7,0 5,0 11 6 O - 10 -
13.12.2017 01:00:00 7,0 5,4 11 6 O 1020,2 10 0,0
13.12.2017 00:00:00 8,0 7,0 9 5 O - 10 -
12.12.2017 23:00:00 9,0 7,0 13 7 O - 10 -
12.12.2017 22:00:00 8,9 7,1 16 9 O 1020,8 10 -
12.12.2017 21:00:00 9,0 7,0 13 7 O - 10 -
12.12.2017 20:00:00 10,0 7,0 13 7 O - 10 -
12.12.2017 19:00:00 10,1 8,0 13 7 O 1020,3 10 0,0
12.12.2017 18:00:00 12,0 9,0 9 5 O - 10 -
12.12.2017 17:00:00 15,0 9,0 0 0 N - 10 -
12.12.2017 16:00:00 17,9 9,1 8 4 NW 1019,0 10 -
12.12.2017 15:00:00 19,0 9,0 9 5 W - 10 -
12.12.2017 14:00:00 19,0 8,0 11 6 WNW - 10 -
12.12.2017 13:00:00 19,1 6,6 9 5 W 1018,3 10 0,0
12.12.2017 12:00:00 19,0 6,0 5 3 - - 10 -
12.12.2017 11:00:00 19,0 9,0 2 1 - - 10 -
12.12.2017 10:00:00 16,2 10,0 9 5 O 1019,2 10 -
12.12.2017 09:00:00 12,0 8,0 11 6 O - 10 -
12.12.2017 08:00:00 8,0 6,0 11 6 O - 10 -
12.12.2017 07:00:00 7,4 5,6 11 6 O 1018,4 10 0,0
12.12.2017 06:00:00 9,0 6,0 9 5 O - 10 -
12.12.2017 05:00:00 9,0 6,0 11 6 NO - 10 -
12.12.2017 04:00:00 7,6 5,9 15 8 NO 1018,0 10 -
12.12.2017 03:00:00 - - - - - - - -
12.12.2017 02:00:00 11,0 8,0 15 8 NO - 10 -
12.12.2017 01:00:00 11,0 9,0 18 10 O - 10 -
12.12.2017 00:00:00 11,0 9,0 15 8 NO - 10 -
11.12.2017 23:00:00 10,0 9,0 13 7 O - 10 -
11.12.2017 22:00:00 11,0 10,0 11 6 ONO - 10 -
11.12.2017 21:00:00 13,0 11,0 16 9 O - 10 -
11.12.2017 20:00:00 13,0 11,0 16 9 ONO - 10 -
11.12.2017 19:00:00 13,8 11,8 24 13 O 1016,0 10 0,0
11.12.2017 18:00:00 14,0 12,0 18 10 O - 10 -
11.12.2017 17:00:00 15,0 12,0 22 12 ONO - 10 -
11.12.2017 16:00:00 15,5 11,1 21 11 ONO 1015,3 10 -
11.12.2017 15:00:00 17,0 10,0 21 11 O - 10 -
11.12.2017 14:00:00 17,0 8,0 24 13 O - 10 -
11.12.2017 13:00:00 17,1 8,3 22 12 O 1015,6 10 0,0
11.12.2017 12:00:00 16,0 5,0 22 12 O - 10 -
11.12.2017 11:00:00 14,0 6,0 21 11 O - 10 -
11.12.2017 10:00:00 11,8 6,1 18 10 O 1018,6 10 -
11.12.2017 09:00:00 8,0 5,0 15 8 ONO - 10 -
11.12.2017 08:00:00 5,0 4,0 15 8 O - 10 -
11.12.2017 07:00:00 3,0 2,0 15 8 O - 10 -
11.12.2017 06:00:00 3,0 2,0 13 7 O - 10 -
11.12.2017 05:00:00 3,0 2,0 11 6 O - 10 -
11.12.2017 04:00:00 3,0 2,1 11 6 O 1019,0 10 -
11.12.2017 03:00:00 4,0 3,0 11 6 O - 10 -
11.12.2017 02:00:00 5,0 4,0 11 6 O - 10 -
11.12.2017 01:00:00 5,2 4,0 11 6 O 1019,3 10 0,0
11.12.2017 00:00:00 7,0 5,0 11 6 ONO - 10 -
10.12.2017 23:00:00 8,0 5,0 11 6 O - 10 -
10.12.2017 22:00:00 9,0 6,6 9 5 O 1020,4 10 -
10.12.2017 21:00:00 10,0 7,0 4 2 - - 10 -
10.12.2017 20:00:00 10,0 6,0 5 3 ZO - 10 -
10.12.2017 19:00:00 10,3 6,5 8 4 ZO 1020,6 10 0,0

tt = temperatuur
td = dauwpunt
ff = windsnelheid
dd = windrichting
ppp = luchtdruk
vv = zicht
rr = neerslag

Weerstations in de omgeving